| time (UTC) | temp C | wind direction | speed KPH | gust KPH | rain 1hr cm | rain 24hr cm | rain mn cm | humidity % | barometer mb |
| 20260505164553 | 19 | 323 | 4.8 | 11.3 | 0.00 | 0.00 | 0.00 | 58 | 1010.2 |
| 20260505163050 | 19 | 292 | 3.2 | 11.3 | 0.00 | 0.00 | 0.00 | 57 | 1010.1 |
| 20260505161552 | 18 | 309 | 6.4 | 9.7 | 0.00 | 0.00 | 0.00 | 59 | 1010.1 |
| 20260505153040 | 18 | 5 | 0.0 | 1.6 | 0.00 | 0.00 | 0.00 | 64 | 1010.0 |
| 20260505151536 | 16 | 352 | 0.0 | 4.8 | 0.00 | 0.00 | 0.00 | 69 | 1010.0 |
| 20260505124516 | 8 | 122 | 0.0 | 3.2 | 0.00 | 0.00 | 0.00 | 88 | 1008.6 |
| 20260505123023 | 8 | 122 | 0.0 | 1.6 | 0.00 | 0.00 | 0.00 | 87 | 1008.5 |
| 20260505121507 | 9 | 122 | 1.6 | 3.2 | 0.00 | 0.00 | 0.00 | 85 | 1008.3 |
| 20260505120015 | 10 | 121 | 0.0 | 1.6 | 0.00 | 0.00 | 0.00 | 85 | 1008.1 |
| 20260505114503 | 10 | 121 | 0.0 | 1.6 | 0.00 | 0.00 | 0.00 | 84 | 1008.0 |
| 20260505113059 | 10 | 121 | 0.0 | 1.6 | 0.00 | 0.00 | 0.00 | 83 | 1007.9 |
| 20260505111556 | 11 | 121 | 0.0 | 1.6 | 0.00 | 0.00 | 0.00 | 81 | 1007.7 |
| 20260505101605 | 12 | 121 | 0.0 | 0.0 | 0.00 | 0.00 | 0.00 | 76 | 1007.2 |
| 20260505094547 | 13 | 121 | 3.2 | 4.8 | 0.00 | 0.00 | 0.00 | 69 | 1007.1 |
| 20260505093055 | 12 | 121 | 1.6 | 4.8 | 0.00 | 0.00 | 0.00 | 72 | 1007.0 |
| 20260505091544 | 13 | 121 | 0.0 | 1.6 | 0.00 | 0.00 | 0.00 | 72 | 1006.9 |
| 20260505090043 | 12 | 121 | 0.0 | 1.6 | 0.00 | 0.00 | 0.00 | 70 | 1006.9 |
| 20260505084542 | 12 | 121 | 0.0 | 1.6 | 0.00 | 0.00 | 0.00 | 71 | 1006.8 |
| 20260505083041 | 12 | 121 | 0.0 | 1.6 | 0.00 | 0.00 | 0.00 | 73 | 1006.9 |
| 20260505081544 | 12 | 146 | 1.6 | 4.8 | 0.00 | 0.00 | 0.00 | 71 | 1006.8 |
| 20260505080047 | 13 | 118 | 1.6 | 4.8 | 0.00 | 0.00 | 0.00 | 70 | 1006.7 |
| 20260505074536 | 13 | 118 | 0.0 | 1.6 | 0.00 | 0.00 | 0.00 | 69 | 1006.7 |
| 20260505073038 | 13 | 118 | 1.6 | 6.4 | 0.00 | 0.00 | 0.00 | 70 | 1006.6 |
| 20260505071529 | 11 | 119 | 3.2 | 6.4 | 0.00 | 0.00 | 0.00 | 80 | 1006.3 |
| 20260505070026 | 11 | 136 | 1.6 | 3.2 | 0.00 | 0.00 | 0.00 | 81 | 1006.2 |
| 20260505064526 | 11 | 105 | 0.0 | 3.2 | 0.00 | 0.00 | 0.00 | 79 | 1006.1 |
| 20260505063025 | 11 | 105 | 1.6 | 8.0 | 0.00 | 0.00 | 0.00 | 77 | 1005.9 |
| 20260505061528 | 12 | 252 | 1.6 | 8.0 | 0.00 | 0.00 | 0.00 | 72 | 1005.9 |
| 20260505060025 | 14 | 269 | 3.2 | 4.8 | 0.00 | 0.00 | 0.00 | 67 | 1005.6 |
| 20260505054524 | 14 | 269 | 3.2 | 4.8 | 0.00 | 0.00 | 0.00 | 69 | 1005.5 |
| 20260505053034 | 14 | 269 | 1.6 | 3.2 | 0.00 | 0.00 | 0.00 | 68 | 1005.4 |
| 20260505051536 | 15 | 269 | 0.0 | 1.6 | 0.00 | 0.00 | 0.00 | 63 | 1005.4 |
| 20260505041523 | 16 | 264 | 4.8 | 6.4 | 0.00 | 0.00 | 0.00 | 60 | 1004.9 |
| 20260505040020 | 16 | 113 | 1.6 | 6.4 | 0.00 | 0.00 | 0.00 | 59 | 1004.8 |
| 20260505034519 | 16 | 114 | 3.2 | 6.4 | 0.00 | 0.00 | 0.00 | 61 | 1004.5 |
| 20260505033019 | 16 | 118 | 3.2 | 6.4 | 0.00 | 0.00 | 0.00 | 64 | 1004.4 |
| 20260505031521 | 18 | 107 | 3.2 | 6.4 | 0.00 | 0.00 | 0.00 | 60 | 1004.4 |
| 20260505030018 | 20 | 110 | 1.6 | 4.8 | 0.00 | 0.00 | 0.00 | 56 | 1004.3 |
| 20260505024518 | 23 | 97 | 4.8 | 8.0 | 0.00 | 0.00 | 0.00 | 41 | 1004.3 |
| 20260505023020 | 24 | 101 | 4.8 | 4.8 | 0.00 | 0.00 | 0.00 | 38 | 1004.3 |
| 20260505021514 | 25 | 79 | 0.0 | 6.4 | 0.00 | 0.00 | 0.00 | 34 | 1004.4 |
| 20260505020013 | 25 | 74 | 3.2 | 8.0 | 0.00 | 0.00 | 0.00 | 34 | 1004.5 |
| 20260505014513 | 26 | 49 | 8.0 | 12.9 | 0.00 | 0.00 | 0.00 | 30 | 1004.5 |
| 20260505013010 | 26 | 47 | 8.0 | 14.5 | 0.00 | 0.00 | 0.00 | 29 | 1004.7 |
| 20260505011510 | 26 | 24 | 11.3 | 17.7 | 0.00 | 0.00 | 0.00 | 28 | 1004.8 |
| 20260505010016 | 26 | 338 | 9.7 | 20.9 | 0.00 | 0.00 | 0.00 | 29 | 1004.9 |
| 20260505004507 | 27 | 333 | 14.5 | 20.9 | 0.00 | 0.00 | 0.00 | 25 | 1004.9 |
| 20260505003009 | 26 | 327 | 9.7 | 19.3 | 0.00 | 0.00 | 0.00 | 25 | 1004.9 |
| 20260505001504 | 27 | 337 | 11.3 | 19.3 | 0.00 | 0.00 | 0.00 | 23 | 1004.9 |
| 20260505000001 | 26 | 328 | 6.4 | 16.1 | 0.00 | 0.00 | 0.00 | 27 | 1004.9 |
| 20260504234601 | 26 | 321 | 6.4 | 16.1 | 0.00 | 0.00 | 0.00 | 28 | 1005.0 |
| 20260504233058 | 26 | 303 | 8.0 | 12.9 | 0.00 | 0.00 | 0.00 | 25 | 1005.0 |
| 20260504231559 | 27 | 6 | 9.7 | 20.9 | 0.00 | 0.00 | 0.00 | 26 | 1005.2 |
| 20260504230053 | 26 | 336 | 8.0 | 16.1 | 0.00 | 0.00 | 0.00 | 27 | 1005.3 |
| 20260504224551 | 26 | 289 | 9.7 | 16.1 | 0.00 | 0.00 | 0.00 | 28 | 1005.4 |
| 20260504223059 | 26 | 60 | 4.8 | 14.5 | 0.00 | 0.00 | 0.00 | 30 | 1005.5 |
| 20260504221558 | 26 | 274 | 4.8 | 16.1 | 0.00 | 0.00 | 0.00 | 29 | 1005.7 |
| 20260504220045 | 26 | 294 | 6.4 | 19.3 | 0.00 | 0.00 | 0.00 | 28 | 1005.9 |
| 20260504214542 | 26 | 319 | 8.0 | 17.7 | 0.00 | 0.00 | 0.00 | 31 | 1006.0 |
| 20260504213057 | 26 | 337 | 8.0 | 14.5 | 0.00 | 0.00 | 0.00 | 32 | 1006.2 |
| 20260504211541 | 26 | 80 | 0.0 | 16.1 | 0.00 | 0.00 | 0.00 | 30 | 1006.3 |
| 20260504210035 | 26 | 346 | 9.7 | 16.1 | 0.00 | 0.00 | 0.00 | 30 | 1006.4 |
| 20260504204532 | 25 | 257 | 4.8 | 14.5 | 0.00 | 0.00 | 0.00 | 32 | 1006.6 |
| 20260504203043 | 25 | 303 | 8.0 | 14.5 | 0.00 | 0.00 | 0.00 | 32 | 1006.8 |
| 20260504201528 | 25 | 355 | 4.8 | 11.3 | 0.00 | 0.00 | 0.00 | 33 | 1006.9 |
| 20260504200026 | 25 | 293 | 4.8 | 16.1 | 0.00 | 0.00 | 0.00 | 34 | 1007.0 |
| 20260504194531 | 25 | 265 | 6.4 | 14.5 | 0.00 | 0.00 | 0.00 | 36 | 1007.0 |
| 20260504193024 | 25 | 286 | 4.8 | 17.7 | 0.00 | 0.00 | 0.00 | 34 | 1007.1 |
| 20260504191532 | 24 | 284 | 3.2 | 12.9 | 0.00 | 0.00 | 0.00 | 37 | 1007.1 |
| 20260504190020 | 23 | 160 | 1.6 | 16.1 | 0.00 | 0.00 | 0.00 | 35 | 1007.3 |
| 20260504184519 | 23 | 259 | 1.6 | 12.9 | 0.00 | 0.00 | 0.00 | 38 | 1007.4 |
| 20260504183017 | 23 | 266 | 6.4 | 12.9 | 0.00 | 0.00 | 0.00 | 36 | 1007.5 |
| 20260504181518 | 23 | 225 | 6.4 | 12.9 | 0.00 | 0.00 | 0.00 | 37 | 1007.6 |
| 20260504180016 | 22 | 262 | 4.8 | 9.7 | 0.00 | 0.00 | 0.00 | 40 | 1007.7 |
| 20260504174512 | 22 | 272 | 6.4 | 14.5 | 0.00 | 0.00 | 0.00 | 38 | 1007.7 |
| 20260504173011 | 21 | 292 | 6.4 | 12.9 | 0.00 | 0.00 | 0.00 | 41 | 1007.7 |
| 20260504171608 | 21 | 262 | 3.2 | 11.3 | 0.00 | 0.00 | 0.00 | 41 | 1007.7 |